Flag for Germany Weather past 2 weeks in Bühl, Baden-Württemberg, Germany

34 °F


Feels Like: 30 °F
Forecast: 29 / 42 °F
Wind: 5 mph from Northeast

Location: Strasbourg Airport

Current Time: Nov 27, 2015 at 5:43:34 AM

Latest Report: Nov 27, 2015 at 4:30 AM

Visibility: 1 mi

Pressure: 30.15 "Hg

Humidity: 100%

Dew point: 34 °F

Location of BühlLocation

Historic Weather in Bühl — Graph


Bühl temperature yesterday

Maximum temperature yesterday: 45 °F (at 1:00 PM)
Minimum temperature yesterday: 36 °F (at 11:00 PM)
Average temperature yesterday: 41 °F

Past Weeks' High & Low Weather Summary

High64 °F (Nov 15, 3:00 PM)100% (Nov 12, 11:30 PM)30.48 "Hg (Nov 12, 11:30 PM)
Low25 °F (Nov 24, 7:30 AM)39% (Nov 16, 11:30 AM)29.45 "Hg (Nov 21, 11:00 AM)
Average47 °F77%30.05 "Hg
* Reported Nov 12 4:00 AM — Nov 27 4:00 AM, Bühl, Weather by CustomWeather, © 2015

Note: Actual official high and low records may vary slightly from our data, if they occured in-between our weather recording intervals... More about our weather records


Bühl weather history for previous 24 hours

Time TempWeatherWind HumidityBarometerVisibility
4:00 AM
Fri, Nov 27
34 °FFog.5 mph93%30.15 "Hg3 mi
3:30 AM34 °FLow clouds.3 mph93%30.15 "Hg4 mi
3:00 AM32 °FIce fog.5 mph100%30.15 "Hg3 mi
2:30 AM32 °FPassing clouds.5 mph93%30.15 "Hg4 mi
2:00 AM30 °FClear.2 mph93%30.15 "Hg4 mi
1:30 AM32 °FClear.3 mph100%30.15 "Hg5 mi
1:00 AM32 °FClear.6 mph100%30.15 "Hg4 mi
12:30 AM34 °FClear.6 mph93%30.15 "Hg4 mi
11:30 PM
Thu, Nov 26
36 °FPassing clouds.3 mph87%30.18 "Hg4 mi
11:00 PM36 °FPassing clouds.3 mph93%30.15 "Hg4 mi
10:30 PM37 °FClear.3 mph93%30.18 "Hg10 mi
9:30 PM41 °FMostly cloudy.5 mph87%30.15 "HgN/A
9:00 PM41 °FPassing clouds.3 mph87%30.15 "HgN/A
8:30 PM41 °FPartly cloudy.5 mph87%30.15 "HgN/A
8:00 PM41 °FPartly cloudy.6 mph87%30.15 "HgN/A
7:30 PM41 °FPassing clouds.3 mph87%30.15 "HgN/A
7:00 PM41 °FPassing clouds.3 mph87%30.12 "HgN/A
6:30 PM41 °FMostly cloudy.5 mph87%30.12 "HgN/A
6:00 PM41 °FMostly cloudy.5 mph87%30.12 "HgN/A
5:30 PM43 °FClear.3 mph81%30.09 "Hg10 mi
5:00 PM43 °FMostly cloudy.3 mph81%30.09 "HgN/A
4:30 PM43 °FOvercast.5 mph81%30.07 "HgN/A
4:00 PM45 °FOvercast.6 mph76%30.07 "HgN/A
3:30 PM45 °FOvercast.6 mph76%30.07 "HgN/A
3:00 PM45 °FOvercast.8 mph76%30.04 "HgN/A
2:30 PM45 °FMostly cloudy.7 mph76%30.04 "HgN/A
2:00 PM45 °FBroken clouds.10 mph76%30.04 "HgN/A
1:30 PM45 °FLight rain. Broken clouds.9 mph76%30.04 "HgN/A
1:00 PM45 °FOvercast.9 mph81%30.04 "HgN/A
12:30 PM43 °FOvercast.8 mph81%30.04 "HgN/A
12:00 PM43 °FMostly cloudy.10 mph81%30.01 "HgN/A
11:30 AM43 °FMore clouds than sun.10 mph81%30.01 "HgN/A
11:00 AM43 °FOvercast.9 mph81%30.01 "HgN/A
10:30 AM43 °FMostly cloudy.8 mph81%30.01 "HgN/A
10:00 AM41 °FDrizzle. Cloudy.8 mph87%29.98 "HgN/A
9:30 AM41 °FMostly cloudy.8 mph87%29.98 "HgN/A
9:00 AM41 °FMostly cloudy.5 mph87%29.98 "HgN/A
8:30 AM41 °FLight rain. Cloudy.5 mph87%29.95 "HgN/A
7:30 AM39 °FOvercast.3 mph87%29.92 "HgN/A
7:00 AM39 °FMostly cloudy.3 mph87%29.92 "HgN/A
6:00 AM39 °FMostly cloudy.3 mph87%29.89 "HgN/A
5:30 AM41 °FMostly cloudy.6 mph81%29.89 "HgN/A
Weather by CustomWeather, © 2015

See weather overviewHow to use our weather pages